Location: Alsip
(41.6689°N, 87.7387°W)
Time: 17:43:43
(UTC+00:00)

STARLINK-2712 - Pass Details

Date: 02 August 2021
Orbit: 546 x 548 km, 53.1° (Epoch: 22 September)

Event Time Altitude Azimuth Distance (km) Brightness Sun altitude
Rises 01:47:20 0° 298° (WNW) 2,710 9.8 -7.2°
Reaches altitude 10° 01:49:51 10° 285° (WNW) 1,814 7.7 -7.6°
Maximum altitude 01:53:14 25° 229° (SW) 1,122 5.4 -8.2°
Drops below altitude 10° 01:56:37 10° 174° (S) 1,804 5.9 -8.7°
Enters shadow 01:57:57 - 165° (SSE) 2,269 6.3 -8.9°
